Pacific - South Coast: Past 24 Hour Conditions

 

Sentry Shoal - 46131

06:00 PM PDT 23 April 2014Buoy position: 49.92N 125.0W
This table is a summary of hourly weather conditions for the past 24 hours.
Date / Time
(PDT)
Wind(knots) Wave height(m) Wave period(s) Pressure(kPa) Air tempC) Water tempC)
23 April 2014
18:00 S 14 gust 18 0.9 4.0 100.7 10 9
17:00 S 12 gust 14 1.0 4.0 100.7 10 9
16:00 S 16 gust 18 0.9 4.0 100.8 10 9
15:00 S 18 gust 21 0.9 4.0 100.9 9 9
14:00 S 16 gust 18 0.7 4.0 100.9 9 9
13:00 S 14 gust 18 0.7 4.0 100.9 9 9
12:00 S 14 gust 18 0.6 4.0 101.0 9 9
11:00 S 16 gust 18 0.5 3.0 101.0 9 9
10:00 SSE 14 gust 18 0.5 3.0 101.0 8 9
9:00 SSE 16 gust 18 0.6 3.0 101.0 8 9
8:00 SSE 16 N/A N/A N/A N/A N/A
7:00 SSE 14 gust 18 0.5 3.0 101.0 7 9
6:00 SSE 14 gust 16 0.4 3.0 101.0 8 9
5:00 SSE 14 gust 16 0.4 4.0 100.9 8 9
4:00 SSE 14 gust 16 0.5 4.0 100.9 9 9
3:00 SSE 14 gust 16 0.6 4.0 100.9 9 9
2:00 S 16 gust 21 0.5 3.0 100.9 9 9
1:00 SSE 16 gust 18 0.5 3.0 100.9 9 9
0:00 S 14 gust 16 0.4 3.0 100.9 9 9
22 April 2014
23:00 S 14 gust 16 0.3 3.0 100.9 9 9
22:00 SSW 12 gust 14 0.3 3.0 100.9 9 9
21:00 SW 10 gust 12 0.4 4.0 100.9 9 9
20:00 S 14 gust 16 0.5 4.0 100.8 10 9
19:00 S 14 gust 16 0.7 4.0 100.8 10 9
18:00 S 18 gust 19 0.8 4.0 100.8 10 9
 
Map of Pacific - South Coast marine weather areas Tsawwassen Ferry Terminal South Nomad - 46036 Sentry Shoal - 46131 South Brooks - 46132 Halibut Bank - 46146 South Moresby - 46147 South Hecate Strait - 46185 West Sea Otter - 46204 La Perouse Bank - 46206 East Dellwood - 46207 Discovery Island Esquimalt Harbour Kelp Reefs Malahat Race Rocks Lightstation Saturna Island Sheringham Point University of Victoria Victoria Gonzales Victoria Int'l Airport Ballenas Islands Campbell River Airport Comox Airport Entrance Island Fanny Island Nanaimo Airport Port Hardy Airport Sisters Islets Estevan Point Sartine Island Solander Island Tofino Airport Grief Point Powell River Airport Sechelt Cape St.James Bella Bella Airport Bella Coola Airport Cathedral Point Herbert Island Point Atkinson Sand Heads Lightstation Vancouver Harbour Vancouver Int'l Airport West Vancouver Port Alberni Howe Sound - Pam Rocks Squamish Airport